Time,TemperatureF,DewpointF,PressureIn,WindDirection,WindDirectionDegrees,WindSpeedMPH,WindSpeedGustMPH,Humidity,HourlyPrecipIn,Conditions,Clouds,dailyrainin,SoftwareType,DateUTC
2013-03-11 00:00:00,34.0,14.0,-100.00,WSW,256,4.0,5.0,44,0.00,,,0.05,,2013-03-11 06:00:00,
2013-03-11 00:32:00,34.0,14.0,-100.00,WSW,256,4.0,5.0,44,0.00,,,0.05,,2013-03-11 06:32:00,
2013-03-11 00:42:00,34.0,14.0,-100.00,WSW,256,4.0,5.0,44,0.00,,,0.05,,2013-03-11 06:42:00,
2013-03-11 00:53:00,34.0,14.0,-100.00,WSW,256,4.0,5.0,44,0.00,,,0.05,,2013-03-11 06:53:00,
2013-03-11 01:00:00,35.0,13.0,-100.00,NW,324,1.0,3.0,40,0.00,,,0.05,,2013-03-11 07:00:00,
2013-03-11 01:32:00,35.0,13.0,-100.00,NW,324,1.0,3.0,40,0.00,,,0.05,,2013-03-11 07:32:00,
2013-03-11 01:42:00,35.0,13.0,-100.00,NW,324,1.0,3.0,40,0.00,,,0.05,,2013-03-11 07:42:00,
2013-03-11 01:52:00,35.0,13.0,-100.00,NW,324,1.0,3.0,40,0.00,,,0.05,,2013-03-11 07:52:00,
2013-03-11 02:00:00,35.0,14.0,-100.00,NW,316,5.0,6.0,42,0.00,,,0.05,,2013-03-11 08:00:00,
2013-03-11 02:42:00,35.0,14.0,-100.00,NW,316,5.0,6.0,42,0.00,,,0.05,,2013-03-11 08:42:00,
2013-03-11 02:52:00,35.0,14.0,-100.00,NW,316,5.0,6.0,42,0.00,,,0.05,,2013-03-11 08:52:00,
2013-03-11 03:00:00,36.0,13.0,-100.00,WSW,256,11.0,14.0,38,0.00,,,0.05,,2013-03-11 09:00:00,
2013-03-11 03:42:00,36.0,13.0,-100.00,WSW,256,11.0,14.0,38,0.00,,,0.05,,2013-03-11 09:42:00,
2013-03-11 03:52:00,36.0,13.0,-100.00,WSW,256,11.0,14.0,38,0.00,,,0.05,,2013-03-11 09:52:00,
2013-03-11 04:00:00,31.0,11.0,-100.00,NW,304,3.0,4.0,44,0.00,,,0.05,,2013-03-11 10:00:00,
2013-03-11 04:32:00,31.0,11.0,-100.00,NW,304,3.0,4.0,44,0.00,,,0.05,,2013-03-11 10:32:00,
2013-03-11 04:42:00,31.0,11.0,-100.00,NW,304,3.0,4.0,44,0.00,,,0.05,,2013-03-11 10:42:00,
2013-03-11 04:52:00,31.0,11.0,-100.00,NW,304,3.0,4.0,44,0.00,,,0.05,,2013-03-11 10:52:00,
2013-03-11 05:00:00,29.0,13.0,-100.00,WSW,252,6.0,7.0,51,0.00,,,0.05,,2013-03-11 11:00:00,
2013-03-11 05:32:00,29.0,13.0,-100.00,WSW,252,6.0,7.0,51,0.00,,,0.05,,2013-03-11 11:32:00,
2013-03-11 05:42:00,29.0,13.0,-100.00,WSW,252,6.0,7.0,51,0.00,,,0.05,,2013-03-11 11:42:00,
2013-03-11 05:53:00,29.0,13.0,-100.00,WSW,252,6.0,7.0,51,0.00,,,0.05,,2013-03-11 11:53:00,
2013-03-11 06:00:00,29.0,12.0,-100.00,WSW,257,5.0,6.0,50,0.00,,,0.05,,2013-03-11 12:00:00,
2013-03-11 06:32:00,29.0,12.0,-100.00,WSW,257,5.0,6.0,50,0.00,,,0.05,,2013-03-11 12:32:00,
2013-03-11 06:42:00,29.0,12.0,-100.00,WSW,257,5.0,6.0,50,0.00,,,0.05,,2013-03-11 12:42:00,
2013-03-11 06:53:00,29.0,12.0,-100.00,WSW,257,5.0,6.0,50,0.00,,,0.05,,2013-03-11 12:53:00,
2013-03-11 07:00:00,29.0,12.0,-100.00,WSW,252,7.0,10.0,49,0.00,,,0.05,,2013-03-11 13:00:00,
2013-03-11 07:32:00,29.0,12.0,-100.00,WSW,252,7.0,10.0,49,0.00,,,0.05,,2013-03-11 13:32:00,
2013-03-11 07:42:00,29.0,12.0,-100.00,WSW,252,7.0,10.0,49,0.00,,,0.05,,2013-03-11 13:42:00,
2013-03-11 07:52:00,29.0,12.0,-100.00,WSW,252,7.0,10.0,49,0.00,,,0.05,,2013-03-11 13:52:00,
2013-03-11 08:00:00,30.0,12.0,-100.00,WSW,241,6.0,9.0,47,0.00,,,0.05,,2013-03-11 14:00:00,
2013-03-11 08:42:00,30.0,12.0,-100.00,WSW,241,6.0,9.0,47,0.00,,,0.05,,2013-03-11 14:42:00,
2013-03-11 08:53:00,30.0,12.0,-100.00,WSW,241,6.0,9.0,47,0.00,,,0.05,,2013-03-11 14:53:00,
2013-03-11 09:00:00,31.0,14.0,-100.00,WSW,238,3.0,5.0,48,0.00,,,0.05,,2013-03-11 15:00:00,
2013-03-11 09:42:00,31.0,14.0,-100.00,WSW,238,3.0,5.0,48,0.00,,,0.05,,2013-03-11 15:42:00,
2013-03-11 09:53:00,31.0,14.0,-100.00,WSW,238,3.0,5.0,48,0.00,,,0.05,,2013-03-11 15:53:00,
2013-03-11 10:00:00,35.0,14.0,-100.00,ENE,71,9.0,11.0,41,0.00,,,0.05,,2013-03-11 16:00:00,
2013-03-11 10:42:00,35.0,14.0,-100.00,ENE,71,9.0,11.0,41,0.00,,,0.05,,2013-03-11 16:42:00,
2013-03-11 10:52:00,35.0,14.0,-100.00,ENE,71,9.0,11.0,41,0.00,,,0.05,,2013-03-11 16:52:00,
2013-03-11 11:00:00,36.0,15.0,-100.00,ENE,60,10.0,12.0,41,0.00,,,0.02,,2013-03-11 17:00:00,
2013-03-11 11:42:00,36.0,15.0,-100.00,ENE,60,10.0,12.0,41,0.00,,,0.02,,2013-03-11 17:42:00,
2013-03-11 11:53:00,36.0,15.0,-100.00,ENE,60,10.0,12.0,41,0.00,,,0.02,,2013-03-11 17:53:00,
2013-03-11 12:00:00,36.0,17.0,-100.00,ENE,67,6.0,8.0,45,0.00,,,0.00,,2013-03-11 18:00:00,
2013-03-11 12:42:00,36.0,17.0,-100.00,ENE,67,6.0,8.0,45,0.00,,,0.00,,2013-03-11 18:42:00,
2013-03-11 12:53:00,36.0,17.0,-100.00,ENE,67,6.0,8.0,45,0.00,,,0.00,,2013-03-11 18:53:00,
2013-03-11 13:00:00,37.0,16.0,-100.00,ENE,58,7.0,9.0,43,0.00,,,0.00,,2013-03-11 19:00:00,
2013-03-11 13:42:00,37.0,16.0,-100.00,ENE,58,7.0,9.0,43,0.00,,,0.00,,2013-03-11 19:42:00,
2013-03-11 13:52:00,37.0,16.0,-100.00,ENE,58,7.0,9.0,43,0.00,,,0.00,,2013-03-11 19:52:00,
2013-03-11 14:00:00,37.0,19.0,-100.00,NE,49,9.0,12.0,48,0.00,,,0.00,,2013-03-11 20:00:00,
2013-03-11 14:43:00,37.0,19.0,-100.00,NE,49,9.0,12.0,48,0.00,,,0.00,,2013-03-11 20:43:00,
2013-03-11 14:53:00,37.0,19.0,-100.00,NE,49,9.0,12.0,48,0.00,,,0.00,,2013-03-11 20:53:00,
2013-03-11 15:00:00,37.0,20.0,-100.00,ENE,72,6.0,10.0,49,0.00,,,0.00,,2013-03-11 21:00:00,
2013-03-11 15:32:00,37.0,20.0,-100.00,ENE,72,6.0,10.0,49,0.00,,,0.00,,2013-03-11 21:32:00,
2013-03-11 15:43:00,37.0,20.0,-100.00,ENE,72,6.0,10.0,49,0.00,,,0.00,,2013-03-11 21:43:00,
2013-03-11 15:53:00,37.0,20.0,-100.00,ENE,72,6.0,10.0,49,0.00,,,0.00,,2013-03-11 21:53:00,
2013-03-11 16:00:00,40.0,19.0,-100.00,ENE,67,8.0,12.0,44,0.00,,,0.00,,2013-03-11 22:00:00,
2013-03-11 16:43:00,40.0,19.0,-100.00,ENE,67,8.0,12.0,44,0.00,,,0.00,,2013-03-11 22:43:00,
2013-03-11 16:53:00,40.0,19.0,-100.00,ENE,67,8.0,12.0,44,0.00,,,0.00,,2013-03-11 22:53:00,
2013-03-11 17:00:00,39.0,19.0,-100.00,East,88,9.0,12.0,44,0.00,,,0.00,,2013-03-11 23:00:00,
2013-03-11 17:32:00,39.0,19.0,-100.00,East,88,9.0,12.0,44,0.00,,,0.00,,2013-03-11 23:32:00,
2013-03-11 17:43:00,39.0,19.0,-100.00,East,88,9.0,12.0,44,0.00,,,0.00,,2013-03-11 23:43:00,
2013-03-11 17:53:00,39.0,19.0,-100.00,East,88,9.0,12.0,44,0.00,,,0.00,,2013-03-11 23:53:00,
2013-03-11 18:00:00,40.0,2.0,-100.00,West,280,4.0,6.0,20,0.00,,,0.00,,2013-03-12 00:00:00,
2013-03-11 18:42:00,40.0,2.0,-100.00,West,280,4.0,6.0,20,0.00,,,0.00,,2013-03-12 00:42:00,
2013-03-11 18:53:00,40.0,2.0,-100.00,West,280,4.0,6.0,20,0.00,,,0.00,,2013-03-12 00:53:00,
2013-03-11 19:00:00,37.0,3.0,-100.00,WSW,240,2.0,5.0,24,0.00,,,0.00,,2013-03-12 01:00:00,
2013-03-11 19:32:00,37.0,3.0,-100.00,WSW,240,2.0,5.0,24,0.00,,,0.00,,2013-03-12 01:32:00,
2013-03-11 19:42:00,37.0,3.0,-100.00,WSW,240,2.0,5.0,24,0.00,,,0.00,,2013-03-12 01:42:00,
2013-03-11 19:52:00,37.0,3.0,-100.00,WSW,240,2.0,5.0,24,0.00,,,0.00,,2013-03-12 01:52:00,
2013-03-11 20:00:00,29.0,17.0,-100.00,East,79,7.0,9.0,60,0.00,,,0.00,,2013-03-12 02:00:00,
2013-03-11 20:42:00,29.0,17.0,-100.00,East,79,7.0,9.0,60,0.00,,,0.00,,2013-03-12 02:42:00,
2013-03-11 20:52:00,29.0,17.0,-100.00,East,79,7.0,9.0,60,0.00,,,0.00,,2013-03-12 02:52:00,
2013-03-11 21:00:00,26.0,18.0,-100.00,SW,235,2.0,3.0,70,0.00,,,0.00,,2013-03-12 03:00:00,
2013-03-11 21:42:00,26.0,18.0,-100.00,SW,235,2.0,3.0,70,0.00,,,0.00,,2013-03-12 03:42:00,
2013-03-11 21:52:00,26.0,18.0,-100.00,SW,235,2.0,3.0,70,0.00,,,0.00,,2013-03-12 03:52:00,
2013-03-11 22:00:00,23.0,18.0,-100.00,West,273,1.0,2.0,78,0.00,,,0.00,,2013-03-12 04:00:00,
2013-03-11 22:42:00,23.0,18.0,-100.00,West,273,1.0,2.0,78,0.00,,,0.00,,2013-03-12 04:42:00,
2013-03-11 22:52:00,23.0,18.0,-100.00,West,273,1.0,2.0,78,0.00,,,0.00,,2013-03-12 04:52:00,
2013-03-11 23:00:00,23.0,16.0,-100.00,SW,229,0.0,3.0,77,0.00,,,0.00,,2013-03-12 05:00:00,
2013-03-11 23:32:00,23.0,16.0,-100.00,SW,229,0.0,3.0,77,0.00,,,0.00,,2013-03-12 05:32:00,
2013-03-11 23:42:00,23.0,16.0,-100.00,SW,229,0.0,3.0,77,0.00,,,0.00,,2013-03-12 05:42:00,
2013-03-11 23:52:00,23.0,16.0,-100.00,SW,229,0.0,3.0,77,0.00,,,0.00,,2013-03-12 05:52:00,